User: anonymous   Login
Location: Caltech
(34.1382°N, 118.1253°W)
Time: 22:33:53
(UTC-08:00)
Language:

Oscar 19 - Orbit

View from above orbital plane
View from above orbital plane
View from above satellite
View from above satellite

Ground track
Ground track

The orbit data is extracted from the following two-line orbital elements,

1 20442U 90005G   15027.13119198  .00000087  00000-0  47734-4 0  1608
2 20442 098.5010 325.4735 0011564 200.4089 159.6634 14.32674402306743
Epoch (UTC): 27 January 2015 03:08:54
Eccentricity: 0.0011564
inclination: 98.5010°
perigee height: 774 km
apogee height: 791 km
right ascension of ascending node: 325.4735°
argument of perigee: 200.4089°
revolutions per day: 14.32674402
mean anomaly at epoch: 159.6634°
orbit number at epoch: 30674

The dashed part of the orbit path shows where the satellite is in the earth's shadow,  

DLR